Home   Weather   Fargo   Past weeks

Flag for USA Past Weather in Fargo, North Dakota, USA — Yesterday and Last 2 Weeks

Now
62 °F

Sunny.


Feels Like: 62 °F
Forecast: 33 / 58 °F
Wind: 14 mph from Northeast

Location: Hector International Airport

Current Time: Apr 30, 2017 at 5:42:28 pm

Latest Report: Apr 30, 2017 at 4:53 pm


Visibility: 10 mi

Pressure: 29.90 "Hg

Humidity: 17%

Dew Point: 17 °F

Location of FargoLocation

Past Weather in Fargo — Graph

°F

Fargo Temperature Yesterday

Maximum temperature yesterday: 61 °F (at 4:53 pm)
Minimum temperature yesterday: 26 °F (at 4:53 am)
Average temperature yesterday: 46 °F

High & Low Weather Summary for the Past Weeks

 TemperatureHumidityPressure
High68 °F (Apr 15, 5:53 pm)100% (Apr 20, 5:53 am)30.37 "Hg (Apr 20, 5:53 am)
Low25 °F (Apr 28, 5:53 am)16% (Apr 30, 3:53 pm)29.53 "Hg (Apr 24, 2:53 pm)
Average42 °F72%29.98 "Hg
* Reported Apr 15 3:53 pm — Apr 30 3:53 pm, Fargo, Weather by CustomWeather, © 2017

Note: Actual official high and low records may vary slightly from our data, if they occured in-between our weather recording intervals... More about our weather records

Advertising

Fargo Weather History for the Previous 24 Hours

Scroll right to see more
 ConditionsComfort  
Time TempWeatherWind HumidityBarometerVisibility
3:53 pm
Sun, Apr 30
64 °FSunny.18 mph16%29.92 "Hg10 mi
2:53 pm61 °FSunny.12 mph20%29.93 "Hg10 mi
1:53 pm61 °FSunny.15 mph17%29.98 "Hg10 mi
12:53 pm59 °FSunny.16 mph17%30.01 "Hg10 mi
11:53 am58 °FSunny.14 mph23%30.06 "Hg10 mi
10:53 am54 °FSunny.8 mph24%30.09 "Hg10 mi
9:53 am51 °FSunny.9 mph31%30.12 "Hg10 mi
8:53 am48 °FSunny.8 mph39%30.14 "Hg10 mi
7:53 am43 °FSunny.9 mph51%30.14 "Hg10 mi
6:53 am34 °FSunny.5 mph76%30.16 "Hg10 mi
5:53 am37 °FClear.3 mph67%30.17 "Hg10 mi
4:53 am41 °FClear.7 mph58%30.18 "Hg10 mi
3:53 am41 °FClear.8 mph62%30.16 "Hg10 mi
2:53 am39 °FClear.3 mph70%30.19 "Hg10 mi
1:53 am39 °FClear.No wind67%30.21 "Hg10 mi
12:53 am44 °FClear.No wind53%30.21 "Hg10 mi
11:53 pm
Sat, Apr 29
45 °FClear.5 mph49%30.22 "Hg10 mi
10:53 pm48 °FClear.5 mph43%30.24 "Hg10 mi
9:53 pm49 °FClear.5 mph38%30.24 "Hg10 mi
8:53 pm51 °FClear.5 mph33%30.22 "Hg10 mi
7:53 pm56 °FSunny.7 mph27%30.23 "Hg10 mi
6:53 pm60 °FSunny.10 mph22%30.22 "Hg10 mi
5:53 pm61 °FSunny.8 mph19%30.26 "Hg10 mi
Weather by CustomWeather, © 2017

See weather overviewHow to use our weather pages